Location: Dodge City Community College Allied Health Building
(37.7772°N, 100.0364°W)
Time: 20:05:23
(UTC+00:00)

Meteor PRIRODA - Pass Details

Date: 08 December 2021
Orbit: 488 x 505 km, 97.6° (Epoch: 17 January)

Event Time Altitude Azimuth Distance (km) Brightness Sun altitude
Rises 12:52:01 0° 4° (N) 2,572 7.1 -10.0°
Reaches altitude 10° 12:54:09 10° 358° (N) 1,688 6.1 -9.6°
Maximum altitude 12:57:36 43° 286° (WNW) 703 3.9 -9.0°
Drops below altitude 10° 13:01:03 10° 214° (SW) 1,683 6.2 -8.4°
Sets 13:03:11 0° 207° (SSW) 2,564 7.2 -8.0°
